Wind_Speed
34 32 32 32 31 29 23 21 19 14 18 22 22 22 22 23 31 26 26 23 14 11 11 7 7 7 7 10 17 20 19 19 20 24 25 27 29 27 23 26 27 25 24 24 23 24 24 24 23
37 35 35 36 31 30 24 20 22 13 18 24 29 26 20 18 31 19 23 16 14 11 12 12 12 12 15 16 18 19 17 17 22 24 28 27 29 29 27 27 27 28 26 25 22 21 22 22 22
38 40 39 38 36 28 25 4 21 20 26 30 29 22 22 20 29 31 26 16 14 14 15 14 14 16 19 20 20 19 18 19 23 27 29 31 30 30 29 30 30 30 28 26 25 24 24 24 24
36 41 41 41 36 31 23 21 9 27 32 34 23 25 28 34 38 17 18 19 17 19 19 16 17 18 23 21 19 17 21 25 27 30 31 32 32 32 32 32 31 30 28 27 28 27 26 26 25
35 39 42 41 38 34 33 24 17 20 26 34 34 32 27 28 33 26 24 24 18 22 20 18 18 17 21 18 17 20 21 23 27 33 33 33 33 33 34 34 33 31 29 28 27 27 28 28 27
36 38 39 39 36 33 31 30 17 34 20 19 18 31 32 31 30 29 29 27 24 23 20 20 19 19 20 17 18 18 22 29 33 34 32 32 32 33 34 33 34 32 30 31 30 29 29 28 29
37 43 37 36 37 39 36 29 26 26 34 27 18 22 25 31 32 35 31 30 28 25 22 23 21 19 21 19 19 23 26 29 32 34 33 32 32 30 33 33 32 31 30 30 29 27 28 28 30
41 39 47 41 37 37 32 35 36 33 34 27 25 30 28 32 36 37 31 32 33 27 25 26 24 22 24 21 23 25 27 30 30 34 34 33 32 31 34 33 31 29 29 28 28 28 29 29 33
47 52 54 47 41 36 35 37 41 42 45 39 37 39 38 36 33 40 35 34 32 34 28 30 27 25 24 23 24 25 28 30 30 32 34 34 33 32 35 36 35 31 29 29 30 31 31 31 32
54 57 51 45 51 42 40 41 42 46 36 36 42 44 45 44 42 35 29 25 31 39 35 32 31 28 27 25 24 27 28 30 32 34 35 36 35 35 38 37 35 33 30 31 32 33 33 34 31
56 62 51 42 40 39 45 48 45 41 39 32 37 39 41 45 47 44 41 30 39 42 45 36 37 30 30 29 27 29 30 32 33 35 37 36 37 37 39 39 34 32 31 31 33 34 35 35 33
51 51 53 61 51 48 47 46 54 48 41 43 30 27 33 40 44 48 45 43 39 42 41 47 26 25 32 33 31 31 33 32 34 36 37 38 38 36 39 39 34 32 31 31 33 34 36 35 34
47 48 54 57 58 60 54 51 51 53 43 39 51 45 32 39 50 50 51 28 43 41 36 41 37 30 40 40 36 36 34 34 35 37 39 39 41 38 38 39 34 31 29 30 33 33 35 35 35
45 49 49 49 56 59 60 64 59 57 44 47 48 49 48 46 49 52 50 51 51 47 51 48 50 42 42 41 39 40 37 38 40 42 44 41 41 42 39 39 35 35 32 32 32 33 35 34 35
46 50 50 48 50 53 57 62 71 57 56 52 51 52 49 55 50 55 46 48 52 53 52 53 53 51 41 42 40 41 38 40 43 46 51 47 41 43 40 40 36 36 37 34 32 32 34 36 34
49 50 52 46 51 50 53 59 51 56 67 63 56 52 53 56 60 62 60 54 56 56 54 51 52 54 46 44 42 40 40 42 46 49 52 53 44 44 38 39 36 37 37 35 35 33 36 35 33
49 53 55 53 49 53 52 58 52 48 53 65 69 63 59 57 59 60 59 61 61 57 55 53 51 50 52 48 45 41 41 46 48 51 52 50 47 42 36 37 36 36 36 35 36 35 36 36 32
50 54 55 55 50 54 53 59 54 52 55 57 58 71 66 66 60 60 61 56 59 61 61 56 52 50 50 51 49 43 41 46 49 52 52 47 45 39 33 34 36 36 34 34 36 35 34 33 34
55 57 60 58 60 56 38 57 60 57 57 57 57 56 69 73 72 66 60 55 59 67 68 60 52 50 51 50 52 48 45 49 53 53 47 44 44 35 30 32 34 34 33 34 33 33 31 32 36
59 61 59 61 63 67 65 67 61 61 60 60 59 59 57 60 58 61 60 60 64 67 66 60 51 50 51 52 52 50 48 52 55 53 45 43 41 29 26 31 33 32 33 33 32 30 31 34 35
55 59 62 66 67 69 67 71 67 65 66 63 64 62 59 60 61 61 63 67 69 72 71 63 54 53 54 54 55 52 53 53 57 55 44 40 31 25 26 30 31 30 32 31 30 30 34 34 33
52 51 56 61 64 70 63 72 71 66 66 67 63 61 61 61 60 63 64 63 64 62 65 67 64 60 55 53 54 53 55 52 55 52 44 32 27 24 27 30 30 28 30 30 30 31 32 32 33
53 51 52 55 59 63 65 64 73 69 69 68 68 64 63 63 62 61 63 64 55 50 53 56 57 61 62 57 55 58 56 53 51 45 38 28 25 24 28 29 28 29 31 31 29 30 31 32 34
35 36 43 48 44 57 68 58 74 72 71 71 70 68 66 67 61 60 61 57 56 53 50 52 49 48 51 55 56 54 47 46 45 38 30 28 24 26 28 27 28 29 31 29 27 29 31 33 31
21 24 32 38 35 47 48 39 56 69 71 70 68 55 50 43 55 62 60 58 51 50 51 48 47 41 39 45 42 38 42 40 40 31 30 25 24 28 28 27 28 29 30 26 28 32 31 30 28
28 23 31 36 29 28 24 35 38 54 59 59 68 59 51 54 60 63 56 52 49 52 47 44 44 41 42 39 36 36 38 38 33 31 27 25 26 28 26 27 28 28 27 26 30 31 28 28 26
18 24 24 21 23 29 32 33 36 38 43 51 48 39 36 60 59 62 54 47 52 50 46 40 42 41 41 38 36 34 34 34 29 29 25 28 28 25 26 26 26 25 25 29 29 27 28 26 24
17 19 19 21 28 33 22 25 19 19 21 17 39 35 40 41 56 60 52 45 48 48 44 40 38 39 37 35 31 32 31 30 27 27 28 24 22 23 24 24 23 25 27 26 25 25 27 23 23
17 17 19 27 24 24 27 20 9 26 30 31 44 18 26 42 56 53 49 51 49 43 39 39 39 36 33 30 30 29 27 27 26 26 21 19 20 21 22 22 24 25 22 24 23 24 23 21 24
29 19 30 22 28 23 28 26 30 20 32 38 39 32 34 45 45 50 46 45 45 43 40 39 34 33 30 31 27 27 27 24 24 21 20 19 19 19 19 22 21 21 22 21 22 22 22 20 22
Wind_Direction
221 224 226 224 225 225 221 219 235 177 234 243 219 224 218 183 219 216 247 263 265 278 298 312 345 351 322 311 325 334 335 340 338 344 348 347 343 343 345 342 340 337 337 334 331 330 329 325 321
218 222 225 225 222 225 219 224 225 212 225 224 226 225 231 196 228 254 244 253 260 276 294 319 335 347 340 330 330 338 335 334 338 343 343 340 339 340 340 343 342 337 339 339 334 328 328 328 324
224 220 221 224 219 217 218 176 299 230 230 227 235 231 220 194 239 231 245 246 258 271 292 306 321 332 333 330 329 336 341 338 338 339 341 336 338 336 337 340 342 340 344 341 336 335 331 330 330
233 225 221 223 220 210 215 164 155 242 245 238 233 233 228 219 234 255 242 245 255 267 284 301 307 323 334 332 330 330 335 339 338 339 339 337 337 337 337 339 342 343 344 343 338 334 333 331 331
237 235 229 224 217 213 198 180 211 205 240 249 239 237 232 232 250 248 242 243 255 265 279 297 305 312 330 328 327 329 335 338 343 343 340 338 336 338 338 342 340 342 344 340 338 336 333 332 329
238 237 238 233 224 218 217 194 219 219 215 219 246 232 243 237 247 244 247 247 256 253 269 283 299 310 318 319 318 325 328 332 335 339 337 337 337 336 338 339 337 339 340 337 339 335 329 327 324
236 238 239 236 230 227 211 209 207 242 222 202 219 241 237 251 237 243 251 252 253 258 269 275 290 304 309 305 316 318 324 326 335 337 336 335 336 337 336 334 334 332 334 333 334 331 324 322 320
235 236 234 234 231 226 227 212 217 220 236 228 221 226 239 241 252 255 248 254 262 259 264 272 280 292 300 301 310 317 320 325 330 333 337 333 335 336 335 331 328 327 324 329 330 328 327 323 317
236 240 236 229 235 233 223 224 223 224 225 226 212 224 228 235 236 246 245 250 261 265 264 271 277 283 294 297 305 309 315 318 325 328 334 335 334 336 334 331 327 323 326 329 329 325 326 324 321
239 234 233 232 238 239 239 227 229 237 242 235 226 228 230 237 240 250 242 243 259 269 266 270 275 281 287 291 298 303 306 312 320 326 332 334 334 334 333 330 324 320 325 329 325 323 324 321 320
240 238 237 233 237 242 239 238 246 241 234 224 240 232 249 238 247 250 249 252 269 272 274 273 273 272 282 291 293 294 301 309 319 320 327 331 331 332 330 327 319 318 323 326 320 320 318 316 319
242 246 247 236 242 246 237 232 237 235 235 223 210 245 231 251 244 246 245 252 263 276 278 268 244 288 288 288 292 291 298 308 318 317 320 325 327 327 324 323 317 318 324 319 314 319 313 313 317
247 247 245 242 243 243 248 242 243 230 236 235 239 230 222 250 247 235 239 220 239 236 230 247 283 292 291 291 292 294 299 306 313 313 312 318 325 319 320 318 316 320 320 312 313 316 308 310 314
249 248 247 248 245 245 246 246 244 229 232 235 237 239 229 232 244 240 243 246 254 258 265 263 275 280 285 286 289 293 298 306 310 311 310 314 322 317 316 317 315 320 316 315 315 312 305 307 308
249 249 250 248 250 248 250 246 241 235 233 234 235 236 236 241 242 244 236 242 254 257 259 264 270 274 279 282 284 289 298 306 309 310 310 313 317 315 312 315 315 317 314 318 318 308 304 304 309
253 254 255 251 252 252 255 252 246 243 241 238 238 237 236 240 244 250 256 257 255 256 258 264 267 273 280 279 279 286 298 302 305 304 304 308 314 311 309 310 311 312 313 316 316 309 307 306 307
254 255 253 252 251 255 256 254 249 247 244 247 243 243 241 237 241 250 256 257 255 256 256 259 263 271 276 278 277 287 294 295 300 301 301 306 310 305 305 305 308 308 312 314 312 304 304 304 305
254 256 254 253 250 254 252 256 247 245 245 245 249 246 244 242 245 250 249 253 257 258 255 254 257 262 271 279 279 283 288 295 298 301 303 303 305 299 300 301 303 308 310 311 307 304 299 303 302
253 250 251 250 251 246 237 246 247 248 245 244 244 244 248 246 246 245 249 251 253 253 253 254 259 260 267 272 276 285 290 294 297 300 299 301 297 294 295 296 300 305 306 303 303 297 299 299 301
261 260 255 252 250 249 251 251 250 247 247 247 244 242 241 246 250 248 248 248 252 256 258 261 264 264 266 268 272 278 283 289 293 296 298 295 291 289 291 293 298 303 301 300 296 296 297 298 303
261 261 262 260 253 252 251 251 248 246 249 248 246 246 241 239 245 247 244 246 249 254 261 265 261 262 266 269 273 276 278 286 292 296 295 290 283 283 289 290 300 299 297 295 293 295 297 301 303
262 261 257 256 254 255 249 251 248 248 249 251 250 252 253 248 244 245 247 247 250 257 261 265 266 267 266 266 273 278 277 281 287 290 288 281 276 284 286 295 297 296 292 293 293 296 300 301 302
260 251 251 253 251 252 249 251 250 247 246 247 250 249 251 249 249 247 247 253 257 257 255 256 261 263 264 265 268 273 276 276 281 282 282 272 276 283 289 294 292 291 291 294 297 300 300 299 301
280 262 262 259 259 256 250 252 250 247 247 246 247 248 249 249 249 250 246 248 251 254 256 257 261 266 266 263 265 269 269 271 273 275 274 273 278 283 288 290 287 287 291 298 300 299 299 302 299
276 269 274 276 261 265 262 262 258 246 246 245 242 237 242 241 249 245 246 245 247 252 252 256 257 259 258 259 261 264 265 264 270 269 269 273 278 280 288 284 284 288 295 300 301 301 304 300 297
294 288 269 270 258 265 252 252 259 244 241 240 240 236 233 236 245 249 246 248 246 246 249 250 251 251 255 255 260 257 258 261 266 265 269 276 276 281 282 281 287 292 294 301 301 300 298 297 296
262 272 272 280 254 271 276 256 264 251 250 251 232 226 228 242 245 247 247 246 242 243 245 244 244 246 250 253 251 253 255 258 260 264 273 273 277 281 276 284 289 290 296 300 298 296 297 296 292
257 273 269 272 275 272 277 278 268 235 230 243 205 212 226 235 243 245 242 245 240 240 241 239 238 241 245 246 249 252 249 254 258 266 271 277 275 273 281 287 286 293 298 296 295 297 296 294 297
257 267 252 257 277 285 272 249 229 231 218 196 191 204 224 230 238 238 232 233 234 235 236 237 235 239 240 241 245 247 246 250 259 268 270 268 269 275 283 284 292 297 292 293 293 297 297 298 301
270 231 264 259 280 267 270 208 243 239 219 194 174 213 219 225 222 226 225 228 229 231 230 234 233 234 236 238 242 240 243 254 259 263 265 270 275 280 281 290 293 289 292 289 296 297 296 301 302
Height
5855 5858 5861 5862 5867 5870 5874 5880 5883 5888 5895 5895 5894 5893 5896 5899 5891 5883 5891 5892 5895 5894 5894 5892 5890 5890 5890 5890 5889 5888 5887 5886 5884 5881 5880 5879 5877 5876 5873 5872 5870 5869 5867 5866 5864 5861 5860 5859 5857
5849 5853 5856 5857 5863 5866 5872 5878 5881 5885 5890 5889 5885 5889 5892 5894 5887 5884 5887 5892 5893 5894 5893 5891 5889 5888 5889 5888 5887 5886 5885 5884 5882 5879 5878 5876 5874 5872 5871 5869 5867 5867 5864 5862 5861 5858 5856 5855 5853
5843 5846 5850 5852 5855 5865 5871 5877 5882 5886 5881 5882 5883 5888 5889 5892 5883 5885 5887 5891 5892 5892 5891 5889 5887 5886 5885 5885 5884 5884 5882 5881 5879 5876 5875 5874 5872 5870 5868 5866 5864 5863 5859 5857 5856 5855 5853 5851 5850
5838 5840 5843 5846 5854 5861 5869 5871 5877 5880 5874 5877 5881 5884 5886 5884 5879 5889 5889 5889 5889 5889 5888 5886 5886 5884 5882 5881 5881 5880 5880 5878 5876 5873 5872 5869 5868 5866 5863 5862 5860 5859 5856 5853 5852 5851 5850 5848 5847
5832 5834 5837 5840 5848 5856 5860 5864 5869 5874 5871 5872 5876 5877 5882 5883 5879 5884 5884 5885 5887 5887 5885 5884 5883 5882 5881 5879 5878 5878 5877 5875 5874 5872 5869 5866 5865 5863 5861 5858 5856 5855 5852 5851 5850 5847 5846 5845 5844
5828 5829 5832 5837 5844 5850 5856 5857 5862 5864 5865 5869 5870 5873 5875 5877 5877 5879 5879 5881 5881 5883 5882 5881 5881 5879 5879 5878 5877 5876 5875 5873 5871 5869 5867 5865 5863 5861 5858 5855 5854 5851 5849 5848 5846 5844 5844 5842 5841
5824 5825 5827 5831 5838 5841 5845 5848 5850 5857 5858 5862 5869 5871 5873 5869 5871 5871 5874 5876 5876 5878 5878 5877 5877 5876 5875 5876 5874 5874 5872 5870 5869 5867 5865 5863 5861 5859 5857 5854 5851 5850 5847 5846 5845 5842 5841 5839 5838
5816 5817 5823 5825 5831 5836 5841 5840 5842 5846 5851 5858 5862 5861 5867 5867 5861 5862 5870 5870 5869 5872 5874 5873 5873 5873 5873 5872 5871 5870 5869 5868 5866 5865 5863 5861 5860 5857 5855 5853 5850 5847 5846 5844 5842 5839 5837 5836 5834
5807 5807 5812 5821 5825 5831 5833 5836 5837 5837 5838 5846 5850 5852 5855 5855 5859 5857 5861 5863 5864 5864 5868 5868 5868 5870 5869 5869 5869 5867 5866 5865 5864 5862 5861 5858 5857 5854 5851 5849 5846 5844 5842 5840 5838 5835 5833 5831 5829
5798 5800 5807 5818 5818 5819 5824 5827 5830 5831 5836 5841 5844 5846 5847 5851 5852 5857 5853 5854 5859 5856 5859 5861 5864 5865 5865 5866 5867 5864 5863 5861 5860 5858 5857 5855 5853 5850 5848 5846 5843 5840 5838 5835 5833 5830 5828 5826 5824
5791 5791 5803 5809 5810 5812 5816 5820 5820 5824 5828 5833 5839 5843 5841 5848 5848 5851 5852 5855 5852 5853 5850 5854 5855 5861 5860 5859 5863 5861 5859 5858 5856 5854 5852 5851 5849 5847 5844 5842 5840 5837 5833 5831 5828 5826 5824 5821 5819
5779 5786 5790 5799 5801 5800 5804 5809 5810 5815 5820 5823 5828 5837 5838 5836 5840 5843 5849 5852 5853 5850 5847 5835 5845 5852 5853 5854 5856 5857 5855 5853 5851 5849 5848 5847 5846 5844 5841 5839 5836 5834 5829 5826 5824 5822 5820 5817 5815
5771 5779 5780 5783 5787 5789 5794 5798 5800 5807 5815 5820 5820 5823 5829 5828 5829 5833 5840 5843 5843 5832 5833 5828 5828 5847 5846 5846 5847 5848 5848 5848 5846 5845 5845 5844 5842 5840 5838 5834 5832 5830 5825 5822 5818 5817 5815 5812 5810
5764 5765 5769 5772 5776 5778 5781 5786 5790 5801 5806 5810 5811 5814 5817 5815 5816 5825 5831 5836 5838 5837 5835 5835 5835 5844 5844 5842 5840 5841 5841 5839 5839 5838 5838 5840 5838 5834 5831 5829 5825 5822 5821 5818 5815 5812 5809 5809 5806
5753 5753 5757 5763 5767 5769 5771 5769 5776 5794 5796 5797 5801 5803 5810 5809 5809 5812 5821 5826 5832 5832 5834 5833 5832 5832 5840 5836 5836 5835 5835 5833 5832 5829 5826 5829 5832 5828 5824 5821 5819 5816 5812 5811 5809 5807 5804 5802 5798
5744 5745 5747 5761 5758 5763 5757 5755 5771 5782 5782 5785 5790 5795 5799 5801 5803 5804 5808 5817 5818 5821 5824 5827 5826 5825 5829 5832 5830 5831 5830 5828 5828 5827 5824 5819 5824 5820 5817 5815 5813 5809 5807 5803 5801 5799 5797 5796 5792
5735 5734 5736 5743 5750 5747 5741 5746 5764 5770 5769 5772 5777 5783 5787 5793 5796 5798 5801 5803 5805 5810 5814 5816 5819 5821 5817 5822 5824 5825 5825 5824 5823 5821 5818 5817 5815 5815 5811 5808 5807 5804 5801 5799 5796 5794 5792 5789 5787
5722 5720 5724 5727 5739 5734 5731 5733 5748 5754 5756 5759 5762 5766 5771 5777 5784 5788 5792 5796 5796 5797 5800 5805 5811 5813 5813 5808 5814 5819 5820 5818 5816 5814 5811 5809 5807 5807 5805 5802 5800 5797 5795 5793 5790 5789 5786 5784 5781
5704 5706 5710 5717 5719 5713 5714 5720 5730 5739 5741 5745 5750 5754 5759 5763 5770 5778 5779 5784 5785 5783 5784 5794 5802 5806 5807 5806 5806 5808 5810 5809 5809 5808 5805 5802 5801 5799 5798 5796 5794 5791 5789 5787 5784 5783 5780 5779 5776
5690 5690 5697 5698 5700 5696 5702 5707 5719 5721 5724 5732 5737 5741 5747 5752 5759 5764 5769 5773 5771 5771 5776 5786 5796 5799 5801 5800 5803 5805 5803 5803 5802 5800 5798 5795 5794 5792 5791 5789 5787 5785 5783 5780 5778 5776 5774 5772 5770
5679 5678 5681 5679 5681 5679 5692 5687 5701 5708 5710 5717 5722 5727 5735 5740 5746 5751 5758 5759 5763 5764 5765 5775 5785 5790 5793 5794 5793 5797 5795 5796 5793 5788 5790 5790 5787 5785 5784 5782 5780 5779 5776 5775 5773 5771 5768 5767 5764
5663 5666 5665 5662 5664 5666 5672 5666 5682 5697 5701 5704 5711 5717 5722 5728 5733 5737 5742 5748 5753 5758 5762 5765 5771 5776 5781 5786 5784 5786 5786 5790 5787 5783 5783 5783 5779 5778 5777 5775 5774 5773 5770 5769 5767 5765 5763 5760 5758
5650 5647 5645 5646 5646 5647 5653 5653 5670 5680 5686 5689 5695 5703 5707 5712 5718 5726 5732 5736 5746 5751 5752 5755 5759 5763 5768 5775 5776 5776 5777 5781 5778 5777 5776 5775 5772 5772 5770 5769 5767 5766 5764 5763 5762 5759 5757 5754 5751
5636 5634 5633 5633 5633 5629 5643 5641 5645 5661 5668 5676 5681 5687 5694 5699 5707 5712 5720 5729 5733 5738 5743 5746 5750 5754 5758 5761 5765 5768 5768 5770 5768 5770 5770 5767 5765 5765 5764 5763 5761 5760 5759 5758 5756 5754 5751 5748 5744
5627 5626 5624 5622 5622 5618 5628 5629 5627 5650 5650 5657 5664 5672 5681 5687 5691 5700 5708 5716 5724 5729 5731 5738 5742 5747 5749 5752 5755 5758 5759 5761 5761 5764 5762 5760 5759 5759 5758 5756 5755 5755 5753 5752 5750 5747 5744 5741 5739
5620 5619 5618 5612 5615 5616 5619 5616 5620 5622 5628 5637 5649 5659 5668 5672 5679 5687 5699 5708 5716 5717 5723 5729 5733 5738 5741 5743 5747 5750 5751 5752 5755 5756 5754 5753 5753 5752 5751 5751 5750 5749 5747 5746 5744 5741 5739 5736 5734
5616 5614 5614 5606 5603 5606 5609 5609 5609 5617 5624 5631 5639 5652 5655 5659 5667 5678 5691 5698 5703 5709 5715 5721 5724 5730 5732 5737 5740 5742 5743 5744 5749 5748 5747 5746 5746 5746 5745 5744 5745 5744 5742 5740 5737 5735 5733 5731 5729
5608 5610 5609 5607 5602 5600 5601 5604 5606 5614 5608 5620 5634 5639 5643 5650 5658 5669 5680 5691 5695 5701 5707 5712 5717 5721 5726 5729 5732 5734 5736 5739 5741 5740 5740 5741 5740 5740 5739 5740 5740 5738 5736 5734 5732 5731 5727 5726 5724
5605 5605 5604 5600 5596 5594 5595 5597 5605 5599 5602 5606 5616 5635 5640 5639 5647 5659 5669 5677 5685 5695 5701 5704 5708 5714 5718 5722 5725 5728 5731 5733 5733 5733 5734 5735 5735 5735 5735 5735 5734 5732 5731 5729 5727 5725 5722 5720 5718
5592 5596 5591 5593 5592 5591 5589 5587 5581 5586 5591 5598 5603 5609 5628 5628 5638 5647 5659 5668 5680 5688 5693 5696 5702 5706 5712 5715 5720 5722 5724 5726 5726 5727 5728 5728 5729 5730 5731 5730 5728 5727 5726 5724 5722 5720 5718 5716 5714